Weather in Kurakino

Russia / Republic of Mordovia     54°57′35″N   46°08′05″E
В апреле 2022 года жителям России запретили посещать сайт meteo.paraplan.net по решению Генеральной прокуратуры. Аудитория сайта уменьшилась в 10 раз. Владельцы сайта не видят смысла в поддержке погодного сервера в таких условиях. Сайт будет закрыт в октябре.
temp.,
°C
wind,
m/s
gust,
m/s
humid.,
%
clouds,
%
prec.,
mm/h
press.,
hPa
HPBL,
m
4 october, tue
tue400:00+12sse61181100 0.1 1017693
03:00+12sse61184100 0.2 1017637
06:00+11sse61184100 0.0 1018562
09:00+12sse7981100 0.0 1019685
12:00+13sse6977100 0.0 1020774
15:00+13sse71160100 0.0 1020784
18:00+12se61454100 0.0 1020586
21:00+12sse81453100 0.0 1020806
5 october, wed
wed500:00+9sse81489100 1.5 1020750
03:00+9sse71386100 3.0 1019624
06:00+9sse71389100 0.2 1018575
09:00+10s61187100 0.6 1018728
12:00+12s61079100 0.0 10181144
15:00+13s61073100 0.1 10171162
18:00+10s358815 0.1 101794
21:00+10ssw3979100 0.3 1016356
6 october, thu
thu600:00+8w4987100 1.1 1015674
03:00+8wsw6983100 1.6 1015884
06:00+7w588698 0.5 1015829
09:00+6w677870 0.6 1016816
12:00+7w6782100 0.2 10161095
15:00+7w4884100 0.6 10171202
18:00+8wnw5978100 0.3 1018652
21:00+7w497898 0.3 1018414
7 october, fri
fri700:00+6wsw368016 0.0 1018176
03:00+5sw35805 0.0 101880
06:00+5ssw498867 0.0 1016216
09:00+7sw61390100 0.1 1014508
12:00+10w5119187 0.2 1014573
15:00+11wnw61183100 0.3 1015927
18:00+10w61176100 0.1 1017641
21:00+9w71377100 0.1 1017664
8 october, sat
sat800:00+9wnw715785 0.1 1018716
03:00+8wnw7138896 0.1 1020706
06:00+8wnw6118646 0.0 1022524
09:00+9wnw588311 0.0 1023459
12:00+12w67645 0.0 1024961
15:00+13w57585 0.0 10231119
18:00+10sw367510 0.0 1024100
21:00+8sw38825 0.0 1024172